Time,TemperatureF,DewpointF,PressureIn,WindDirection,WindDirectionDegrees,WindSpeedMPH,WindSpeedGustMPH,Humidity,HourlyPrecipIn,Conditions,Clouds,dailyrainin,SoftwareType,DateUTC
2013-08-17 00:01:00,61.2,37.9,29.86,North,353,1.0,5.0,42,0.00,,,0.01,meteohub,2013-08-17 06:01:00,
2013-08-17 00:07:00,60.4,39.0,29.86,North,353,1.0,5.0,45,0.00,,,0.00,meteohub,2013-08-17 06:07:00,
2013-08-17 00:13:00,59.4,39.2,29.87,North,353,1.0,4.0,47,0.00,,,0.00,meteohub,2013-08-17 06:13:00,
2013-08-17 00:19:00,58.5,38.3,29.87,North,353,3.0,4.0,47,0.00,,,0.00,meteohub,2013-08-17 06:19:00,
2013-08-17 00:25:00,58.5,38.8,29.87,North,353,2.0,5.0,48,0.00,,,0.00,meteohub,2013-08-17 06:25:00,
2013-08-17 00:31:00,57.9,38.3,29.87,North,353,3.0,4.0,48,0.00,,,0.00,meteohub,2013-08-17 06:31:00,
2013-08-17 00:37:00,57.7,38.7,29.87,NNW,341,4.0,4.0,49,0.00,,,0.00,meteohub,2013-08-17 06:37:00,
2013-08-17 00:43:00,57.7,38.1,29.87,NW,326,4.0,6.0,48,0.00,,,0.00,meteohub,2013-08-17 06:43:00,
2013-08-17 00:49:00,57.9,38.3,29.87,NW,326,2.0,6.0,48,0.00,,,0.00,meteohub,2013-08-17 06:49:00,
2013-08-17 00:55:00,57.7,38.1,29.87,NW,326,3.0,6.0,48,0.00,,,0.00,meteohub,2013-08-17 06:55:00,
2013-08-17 01:01:00,57.6,38.5,29.87,NW,326,2.0,4.0,49,0.00,,,0.00,meteohub,2013-08-17 07:01:00,
2013-08-17 01:07:00,57.4,37.9,29.87,NW,326,3.0,4.0,48,0.00,,,0.00,meteohub,2013-08-17 07:07:00,
2013-08-17 01:13:00,57.6,37.9,29.87,NW,326,3.0,4.0,48,0.00,,,0.00,meteohub,2013-08-17 07:13:00,
2013-08-17 01:19:00,57.6,37.9,29.86,NW,326,4.0,5.0,48,0.00,,,0.00,meteohub,2013-08-17 07:19:00,
2013-08-17 01:25:00,57.4,37.9,29.87,NW,326,5.0,6.0,48,0.00,,,0.00,meteohub,2013-08-17 07:25:00,
2013-08-17 01:31:00,57.4,37.9,29.87,NW,326,5.0,6.0,48,0.00,,,0.00,meteohub,2013-08-17 07:31:00,
2013-08-17 01:38:00,57.2,37.8,29.87,NW,326,3.0,6.0,48,0.00,,,0.00,meteohub,2013-08-17 07:38:00,
2013-08-17 01:44:00,57.0,37.6,29.87,NNW,327,4.0,6.0,48,0.00,,,0.00,meteohub,2013-08-17 07:44:00,
2013-08-17 01:50:00,57.2,37.2,29.87,NW,326,2.0,6.0,47,0.00,,,0.00,meteohub,2013-08-17 07:50:00,
2013-08-17 01:56:00,57.4,37.4,29.87,NW,326,2.0,5.0,47,0.00,,,0.00,meteohub,2013-08-17 07:56:00,
2013-08-17 02:02:00,56.1,37.2,29.87,NW,326,3.0,4.0,49,0.00,,,0.00,meteohub,2013-08-17 08:02:00,
2013-08-17 02:08:00,55.9,37.6,29.87,NW,326,0.0,5.0,50,0.00,,,0.00,meteohub,2013-08-17 08:08:00,
2013-08-17 02:14:00,55.6,37.8,29.86,NW,326,0.0,5.0,51,0.00,,,0.00,meteohub,2013-08-17 08:14:00,
2013-08-17 02:20:00,55.2,36.9,29.86,NW,326,0.0,5.0,50,0.00,,,0.00,meteohub,2013-08-17 08:20:00,
2013-08-17 02:26:00,55.0,37.2,29.86,NW,326,1.0,3.0,51,0.00,,,0.00,meteohub,2013-08-17 08:26:00,
2013-08-17 02:32:00,55.0,37.2,29.86,NW,326,0.0,3.0,51,0.00,,,0.00,meteohub,2013-08-17 08:32:00,
2013-08-17 02:38:00,54.9,37.6,29.86,NW,326,0.0,3.0,52,0.00,,,0.00,meteohub,2013-08-17 08:38:00,
2013-08-17 02:44:00,54.7,37.4,29.86,NW,326,2.0,2.0,52,0.00,,,0.00,meteohub,2013-08-17 08:44:00,
2013-08-17 02:50:00,54.1,37.4,29.86,NW,326,3.0,3.0,53,0.00,,,0.00,meteohub,2013-08-17 08:50:00,
2013-08-17 02:56:00,53.8,36.5,29.86,NW,326,4.0,5.0,52,0.00,,,0.00,meteohub,2013-08-17 08:56:00,
2013-08-17 03:02:00,53.4,36.3,29.86,NW,326,3.0,5.0,52,0.00,,,0.00,meteohub,2013-08-17 09:02:00,
2013-08-17 03:08:00,53.4,36.3,29.86,NW,326,3.0,5.0,52,0.00,,,0.00,meteohub,2013-08-17 09:08:00,
2013-08-17 03:14:00,53.4,35.8,29.86,NW,326,3.0,5.0,51,0.00,,,0.00,meteohub,2013-08-17 09:14:00,
2013-08-17 03:20:00,53.2,35.6,29.86,NW,326,3.0,5.0,51,0.00,,,0.00,meteohub,2013-08-17 09:20:00,
2013-08-17 03:26:00,53.4,35.2,29.86,NW,326,0.0,5.0,50,0.00,,,0.00,meteohub,2013-08-17 09:26:00,
2013-08-17 03:32:00,53.6,34.9,29.86,NW,326,0.0,5.0,49,0.00,,,0.00,meteohub,2013-08-17 09:32:00,
2013-08-17 03:38:00,53.2,36.1,29.86,NW,326,2.0,4.0,52,0.00,,,0.00,meteohub,2013-08-17 09:38:00,
2013-08-17 03:44:00,52.5,36.0,29.86,NW,326,0.0,3.0,53,0.00,,,0.00,meteohub,2013-08-17 09:44:00,
2013-08-17 03:50:00,52.3,35.2,29.86,NW,326,0.0,3.0,52,0.00,,,0.00,meteohub,2013-08-17 09:50:00,
2013-08-17 03:56:00,52.5,35.4,29.86,NW,326,0.0,3.0,52,0.00,,,0.00,meteohub,2013-08-17 09:56:00,
2013-08-17 04:02:00,52.9,35.2,29.86,NW,326,0.0,1.0,51,0.00,,,0.00,meteohub,2013-08-17 10:02:00,
2013-08-17 04:08:00,53.4,35.2,29.86,NW,326,0.0,1.0,50,0.00,,,0.00,meteohub,2013-08-17 10:08:00,
2013-08-17 04:14:00,53.6,35.4,29.86,NW,326,0.0,1.0,50,0.00,,,0.00,meteohub,2013-08-17 10:14:00,
2013-08-17 04:20:00,53.4,35.2,29.86,NW,326,3.0,3.0,50,0.00,,,0.00,meteohub,2013-08-17 10:20:00,
2013-08-17 04:26:00,52.9,35.2,29.86,NW,326,2.0,5.0,51,0.00,,,0.00,meteohub,2013-08-17 10:26:00,
2013-08-17 04:32:00,52.7,35.1,29.86,NW,326,3.0,5.0,51,0.00,,,0.00,meteohub,2013-08-17 10:32:00,
2013-08-17 04:38:00,52.9,34.7,29.86,NW,326,1.0,5.0,50,0.00,,,0.00,meteohub,2013-08-17 10:38:00,
2013-08-17 04:44:00,53.1,34.9,29.86,NW,326,3.0,4.0,50,0.00,,,0.00,meteohub,2013-08-17 10:44:00,
2013-08-17 04:50:00,52.9,35.2,29.86,NW,326,2.0,3.0,51,0.00,,,0.00,meteohub,2013-08-17 10:50:00,
2013-08-17 04:56:00,52.9,35.2,29.86,NW,326,1.0,3.0,51,0.00,,,0.00,meteohub,2013-08-17 10:56:00,
2013-08-17 05:02:00,52.7,35.1,29.86,NW,326,0.0,3.0,51,0.00,,,0.00,meteohub,2013-08-17 11:02:00,
2013-08-17 05:08:00,52.9,35.2,29.86,NW,326,0.0,3.0,51,0.00,,,0.00,meteohub,2013-08-17 11:08:00,
2013-08-17 05:14:00,52.9,34.7,29.86,NW,326,0.0,2.0,50,0.00,,,0.00,meteohub,2013-08-17 11:14:00,
2013-08-17 05:20:00,52.9,34.7,29.86,NW,326,0.0,0.0,50,0.00,,,0.00,meteohub,2013-08-17 11:20:00,
2013-08-17 05:27:00,52.7,35.1,29.86,NW,326,0.0,0.0,51,0.00,,,0.00,meteohub,2013-08-17 11:27:00,
2013-08-17 05:32:00,52.3,34.7,29.87,NW,326,0.0,1.0,51,0.00,,,0.00,meteohub,2013-08-17 11:32:00,
2013-08-17 05:39:00,52.2,35.1,29.86,NW,326,0.0,1.0,52,0.00,,,0.00,meteohub,2013-08-17 11:39:00,
2013-08-17 05:45:00,52.0,34.9,29.86,NW,326,0.0,1.0,52,0.00,,,0.00,meteohub,2013-08-17 11:45:00,
2013-08-17 05:51:00,51.8,34.7,29.87,NW,326,2.0,2.0,52,0.00,,,0.00,meteohub,2013-08-17 11:51:00,
2013-08-17 05:57:00,51.4,34.9,29.87,NW,326,1.0,2.0,53,0.00,,,0.00,meteohub,2013-08-17 11:57:00,
2013-08-17 06:03:00,51.1,34.5,29.87,NW,326,0.0,2.0,53,0.00,,,0.00,meteohub,2013-08-17 12:03:00,
2013-08-17 06:09:00,50.7,34.7,29.87,NW,326,0.0,3.0,54,0.00,,,0.00,meteohub,2013-08-17 12:09:00,
2013-08-17 06:15:00,50.5,35.1,29.87,NW,326,3.0,3.0,55,0.00,,,0.00,meteohub,2013-08-17 12:15:00,
2013-08-17 06:21:00,50.4,34.9,29.88,NW,326,0.0,4.0,55,0.00,,,0.00,meteohub,2013-08-17 12:21:00,
2013-08-17 06:27:00,50.2,35.6,29.88,NW,326,1.0,4.0,57,0.00,,,0.00,meteohub,2013-08-17 12:27:00,
2013-08-17 06:32:00,50.0,35.4,29.88,NW,326,1.0,4.0,57,0.00,,,0.00,meteohub,2013-08-17 12:32:00,
2013-08-17 06:39:00,49.8,34.7,29.88,NW,326,2.0,4.0,56,0.00,,,0.00,meteohub,2013-08-17 12:39:00,
2013-08-17 06:45:00,50.2,35.1,29.88,NW,326,1.0,3.0,56,0.00,,,0.00,meteohub,2013-08-17 12:45:00,
2013-08-17 06:51:00,50.7,35.1,29.88,NW,326,0.0,3.0,55,0.00,,,0.00,meteohub,2013-08-17 12:51:00,
2013-08-17 06:57:00,51.1,35.4,29.88,NW,326,0.0,4.0,55,0.00,,,0.00,meteohub,2013-08-17 12:57:00,
2013-08-17 07:03:00,51.1,35.4,29.88,NW,326,0.0,4.0,55,0.00,,,0.00,meteohub,2013-08-17 13:03:00,
2013-08-17 07:09:00,51.1,35.1,29.88,NW,326,0.0,2.0,54,0.00,,,0.00,meteohub,2013-08-17 13:09:00,
2013-08-17 07:15:00,51.4,35.4,29.88,NW,326,2.0,0.0,54,0.00,,,0.00,meteohub,2013-08-17 13:15:00,
2013-08-17 07:21:00,52.0,35.8,29.88,NW,326,2.0,3.0,54,0.00,,,0.00,meteohub,2013-08-17 13:21:00,
2013-08-17 07:27:00,52.5,36.9,29.88,NW,326,0.0,3.0,55,0.00,,,0.00,meteohub,2013-08-17 13:27:00,
2013-08-17 07:33:00,53.2,38.8,29.88,NW,326,0.0,3.0,58,0.00,,,0.00,meteohub,2013-08-17 13:33:00,
2013-08-17 07:39:00,53.8,37.9,29.88,NW,326,0.0,3.0,55,0.00,,,0.00,meteohub,2013-08-17 13:39:00,
2013-08-17 07:45:00,54.1,37.4,29.88,NW,326,0.0,0.0,53,0.00,,,0.00,meteohub,2013-08-17 13:45:00,
2013-08-17 07:51:00,54.3,37.9,29.88,NW,326,0.0,0.0,54,0.00,,,0.00,meteohub,2013-08-17 13:51:00,
2013-08-17 07:57:00,55.8,36.9,29.88,NW,326,0.0,0.0,49,0.00,,,0.00,meteohub,2013-08-17 13:57:00,
2013-08-17 08:03:00,57.7,37.0,29.88,NW,326,0.0,3.0,46,0.00,,,0.00,meteohub,2013-08-17 14:03:00,
2013-08-17 08:09:00,58.5,36.7,29.88,NW,326,0.0,4.0,44,0.00,,,0.00,meteohub,2013-08-17 14:09:00,
2013-08-17 08:15:00,59.4,36.3,29.88,NW,326,0.0,4.0,42,0.00,,,0.00,meteohub,2013-08-17 14:15:00,
2013-08-17 08:21:00,60.3,36.5,29.88,NW,326,2.0,3.0,41,0.00,,,0.00,meteohub,2013-08-17 14:21:00,
2013-08-17 08:27:00,60.4,37.8,29.88,NW,326,2.0,3.0,43,0.00,,,0.00,meteohub,2013-08-17 14:27:00,
2013-08-17 08:33:00,61.0,38.3,29.88,NW,326,3.0,4.0,43,0.00,,,0.00,meteohub,2013-08-17 14:33:00,
2013-08-17 08:39:00,61.3,38.7,29.88,NW,326,3.0,4.0,43,0.00,,,0.00,meteohub,2013-08-17 14:39:00,
2013-08-17 08:45:00,61.5,38.8,29.88,NW,326,3.0,5.0,43,0.00,,,0.00,meteohub,2013-08-17 14:45:00,
2013-08-17 08:51:00,62.2,39.4,29.88,NW,326,2.0,5.0,43,0.00,,,0.00,meteohub,2013-08-17 14:51:00,
2013-08-17 08:57:00,62.2,38.8,29.88,NW,320,3.0,5.0,42,0.00,,,0.00,meteohub,2013-08-17 14:57:00,
2013-08-17 09:03:00,63.0,39.6,29.88,NW,320,2.0,5.0,42,0.00,,,0.00,meteohub,2013-08-17 15:03:00,
2013-08-17 09:09:00,64.0,37.9,29.88,NW,320,0.0,5.0,38,0.00,,,0.00,meteohub,2013-08-17 15:09:00,
2013-08-17 09:16:00,64.8,37.9,29.88,NNW,348,0.0,4.0,37,0.00,,,0.00,meteohub,2013-08-17 15:16:00,
2013-08-17 09:22:00,65.7,40.1,29.87,North,349,1.0,4.0,39,0.00,,,0.00,meteohub,2013-08-17 15:22:00,
2013-08-17 09:28:00,66.0,39.7,29.87,North,349,0.0,4.0,38,0.00,,,0.00,meteohub,2013-08-17 15:28:00,
2013-08-17 09:34:00,66.4,37.9,29.87,NW,321,0.0,4.0,35,0.00,,,0.00,meteohub,2013-08-17 15:34:00,
2013-08-17 09:40:00,66.7,41.0,29.87,NW,320,0.0,4.0,39,0.00,,,0.00,meteohub,2013-08-17 15:40:00,
2013-08-17 09:46:00,66.7,42.3,29.86,NW,309,3.0,5.0,41,0.00,,,0.00,meteohub,2013-08-17 15:46:00,
2013-08-17 09:52:00,66.9,39.7,29.86,WNW,295,1.0,5.0,37,0.00,,,0.00,meteohub,2013-08-17 15:52:00,
2013-08-17 09:58:00,67.6,39.7,29.86,WNW,284,2.0,5.0,36,0.00,,,0.00,meteohub,2013-08-17 15:58:00,
2013-08-17 10:04:00,68.7,42.1,29.86,West,271,4.0,5.0,38,0.00,,,0.00,meteohub,2013-08-17 16:04:00,
2013-08-17 10:10:00,69.4,41.4,29.86,West,264,0.0,5.0,36,0.00,,,0.00,meteohub,2013-08-17 16:10:00,
2013-08-17 10:16:00,70.5,42.3,29.86,West,263,4.0,6.0,36,0.00,,,0.00,meteohub,2013-08-17 16:16:00,
2013-08-17 10:22:00,70.7,41.0,29.86,WSW,255,1.0,6.0,34,0.00,,,0.00,meteohub,2013-08-17 16:22:00,
2013-08-17 10:28:00,71.2,41.4,29.85,WSW,247,5.0,6.0,34,0.00,,,0.00,meteohub,2013-08-17 16:28:00,
2013-08-17 10:34:00,72.1,41.4,29.85,WSW,241,3.0,6.0,33,0.00,,,0.00,meteohub,2013-08-17 16:34:00,
2013-08-17 10:40:00,73.0,43.0,29.85,SSW,199,3.0,6.0,34,0.00,,,0.00,meteohub,2013-08-17 16:40:00,
2013-08-17 10:46:00,73.6,41.9,29.85,South,176,3.0,6.0,32,0.00,,,0.00,meteohub,2013-08-17 16:46:00,
2013-08-17 10:52:00,73.6,41.0,29.84,South,173,1.0,7.0,31,0.00,,,0.00,meteohub,2013-08-17 16:52:00,
2013-08-17 10:58:00,73.8,42.1,29.84,South,173,4.0,7.0,32,0.00,,,0.00,meteohub,2013-08-17 16:58:00,
2013-08-17 11:04:00,73.8,42.1,29.84,South,173,5.0,7.0,32,0.00,,,0.00,meteohub,2013-08-17 17:04:00,
2013-08-17 11:10:00,73.8,41.2,29.84,South,173,0.0,6.0,31,0.00,,,0.00,meteohub,2013-08-17 17:10:00,
2013-08-17 11:16:00,74.5,42.6,29.83,South,173,6.0,6.0,32,0.00,,,0.00,meteohub,2013-08-17 17:16:00,
2013-08-17 11:22:00,75.0,40.6,29.83,South,173,4.0,6.0,29,0.00,,,0.00,meteohub,2013-08-17 17:22:00,
2013-08-17 11:28:00,75.4,41.0,29.83,South,173,0.0,6.0,29,0.00,,,0.00,meteohub,2013-08-17 17:28:00,
2013-08-17 11:34:00,75.6,41.9,29.83,South,173,1.0,6.0,30,0.00,,,0.00,meteohub,2013-08-17 17:34:00,
2013-08-17 11:40:00,75.4,41.7,29.83,South,173,2.0,5.0,30,0.00,,,0.00,meteohub,2013-08-17 17:40:00,
2013-08-17 11:46:00,75.6,43.7,29.83,South,173,3.0,5.0,32,0.00,,,0.00,meteohub,2013-08-17 17:46:00,
2013-08-17 11:52:00,75.6,42.8,29.83,South,173,3.0,6.0,31,0.00,,,0.00,meteohub,2013-08-17 17:52:00,
2013-08-17 11:58:00,76.6,40.1,29.82,South,173,3.0,6.0,27,0.00,,,0.00,meteohub,2013-08-17 17:58:00,
2013-08-17 12:04:00,78.1,38.3,29.82,South,173,5.0,6.0,24,0.00,,,0.00,meteohub,2013-08-17 18:04:00,
2013-08-17 12:10:00,77.9,39.2,29.82,South,189,5.0,11.0,25,0.00,,,0.00,meteohub,2013-08-17 18:10:00,
2013-08-17 12:16:00,77.5,36.9,29.82,South,185,7.0,11.0,23,0.00,,,0.00,meteohub,2013-08-17 18:16:00,
2013-08-17 12:22:00,77.4,35.6,29.82,South,183,5.0,11.0,22,0.00,,,0.00,meteohub,2013-08-17 18:22:00,
2013-08-17 12:28:00,77.0,39.6,29.81,South,183,2.0,9.0,26,0.00,,,0.00,meteohub,2013-08-17 18:28:00,
2013-08-17 12:34:00,77.0,31.6,29.81,South,183,1.0,9.0,19,0.00,,,0.00,meteohub,2013-08-17 18:34:00,
2013-08-17 12:40:00,77.2,28.9,29.81,South,183,1.0,7.0,17,0.00,,,0.00,meteohub,2013-08-17 18:40:00,
2013-08-17 12:46:00,77.2,36.5,29.81,South,183,5.0,7.0,23,0.00,,,0.00,meteohub,2013-08-17 18:46:00,
2013-08-17 12:52:00,77.4,33.1,29.81,SE,137,1.0,7.0,20,0.00,,,0.00,meteohub,2013-08-17 18:52:00,
2013-08-17 12:58:00,78.3,34.0,29.80,SE,130,4.0,7.0,20,0.00,,,0.00,meteohub,2013-08-17 18:58:00,
2013-08-17 13:05:00,78.8,34.3,29.80,SE,141,4.0,10.0,20,0.00,,,0.00,meteohub,2013-08-17 19:05:00,
2013-08-17 13:11:00,79.3,33.4,29.80,SE,126,4.0,10.0,19,0.00,,,0.00,meteohub,2013-08-17 19:11:00,
2013-08-17 13:17:00,79.9,32.5,29.79,ESE,119,4.0,11.0,18,0.00,,,0.00,meteohub,2013-08-17 19:17:00,
2013-08-17 13:23:00,80.4,33.1,29.79,SE,143,2.0,12.0,18,0.00,,,0.00,meteohub,2013-08-17 19:23:00,
2013-08-17 13:29:00,80.4,31.6,29.79,SSW,192,7.0,12.0,17,0.00,,,0.00,meteohub,2013-08-17 19:29:00,
2013-08-17 13:35:00,80.1,31.3,29.79,SW,227,8.0,12.0,17,0.00,,,0.00,meteohub,2013-08-17 19:35:00,
2013-08-17 13:41:00,79.5,30.9,29.79,SW,215,4.0,15.0,17,0.00,,,0.00,meteohub,2013-08-17 19:41:00,
2013-08-17 13:47:00,79.0,31.8,29.79,WSW,243,9.0,15.0,18,0.00,,,0.00,meteohub,2013-08-17 19:47:00,
2013-08-17 13:53:00,78.3,31.3,29.79,SW,216,5.0,11.0,18,0.00,,,0.00,meteohub,2013-08-17 19:53:00,
2013-08-17 13:59:00,77.7,30.9,29.79,SW,214,6.0,12.0,18,0.00,,,0.00,meteohub,2013-08-17 19:59:00,
2013-08-17 14:05:00,77.7,30.9,29.79,SW,214,0.0,12.0,18,0.00,,,0.00,meteohub,2013-08-17 20:05:00,
2013-08-17 14:11:00,77.7,30.9,29.78,SW,214,2.0,8.0,18,0.00,,,0.00,meteohub,2013-08-17 20:11:00,
2013-08-17 14:17:00,77.7,29.5,29.78,SW,214,0.0,6.0,17,0.00,,,0.00,meteohub,2013-08-17 20:17:00,
2013-08-17 14:23:00,78.3,31.3,29.78,SSE,160,3.0,4.0,18,0.00,,,0.00,meteohub,2013-08-17 20:23:00,
2013-08-17 14:29:00,78.3,31.3,29.78,SSE,159,5.0,7.0,18,0.00,,,0.00,meteohub,2013-08-17 20:29:00,
2013-08-17 14:35:00,78.3,31.3,29.78,ESE,110,5.0,9.0,18,0.00,,,0.00,meteohub,2013-08-17 20:35:00,
2013-08-17 14:41:00,78.1,29.7,29.78,ESE,110,1.0,9.0,17,0.00,,,0.00,meteohub,2013-08-17 20:41:00,
2013-08-17 14:47:00,78.3,29.8,29.77,ESE,110,3.0,8.0,17,0.00,,,0.00,meteohub,2013-08-17 20:47:00,
2013-08-17 14:53:00,78.3,29.8,29.77,ESE,110,2.0,7.0,17,0.00,,,0.00,meteohub,2013-08-17 20:53:00,
2013-08-17 14:59:00,78.6,30.2,29.77,ESE,110,3.0,7.0,17,0.00,,,0.00,meteohub,2013-08-17 20:59:00,
2013-08-17 15:05:00,79.2,29.1,29.77,SE,135,0.0,5.0,16,0.00,,,0.00,meteohub,2013-08-17 21:05:00,
2013-08-17 15:11:00,80.1,28.2,29.76,SSE,148,5.0,5.0,15,0.00,,,0.00,meteohub,2013-08-17 21:11:00,
2013-08-17 15:17:00,79.5,29.5,29.76,SE,139,3.0,6.0,16,0.00,,,0.00,meteohub,2013-08-17 21:17:00,
2013-08-17 15:23:00,79.9,29.7,29.76,SE,137,1.0,6.0,16,0.00,,,0.00,meteohub,2013-08-17 21:23:00,
2013-08-17 15:29:00,80.4,30.2,29.76,SE,137,3.0,6.0,16,0.00,,,0.00,meteohub,2013-08-17 21:29:00,
2013-08-17 15:35:00,80.2,28.4,29.75,ENE,60,4.0,9.0,15,0.00,,,0.00,meteohub,2013-08-17 21:35:00,
2013-08-17 15:41:00,80.1,29.8,29.75,ENE,60,4.0,9.0,16,0.00,,,0.00,meteohub,2013-08-17 21:41:00,
2013-08-17 15:47:00,79.7,29.5,29.75,East,93,0.0,9.0,16,0.00,,,0.00,meteohub,2013-08-17 21:47:00,
2013-08-17 15:53:00,79.3,30.7,29.75,SE,141,6.0,8.0,17,0.00,,,0.00,meteohub,2013-08-17 21:53:00,
2013-08-17 15:59:00,79.5,30.9,29.75,SSE,153,3.0,8.0,17,0.00,,,0.00,meteohub,2013-08-17 21:59:00,
2013-08-17 16:05:00,79.3,29.3,29.75,SSE,153,1.0,8.0,16,0.00,,,0.00,meteohub,2013-08-17 22:05:00,
2013-08-17 16:11:00,79.5,30.9,29.75,SSE,153,1.0,7.0,17,0.00,,,0.00,meteohub,2013-08-17 22:11:00,
2013-08-17 16:17:00,79.5,30.9,29.74,SSE,153,1.0,6.0,17,0.00,,,0.00,meteohub,2013-08-17 22:17:00,
2013-08-17 16:23:00,79.5,29.5,29.74,SSE,153,0.0,6.0,16,0.00,,,0.00,meteohub,2013-08-17 22:23:00,
2013-08-17 16:29:00,79.5,32.4,29.74,SSE,153,2.0,5.0,18,0.00,,,0.00,meteohub,2013-08-17 22:29:00,
2013-08-17 16:35:00,79.5,30.9,29.74,SSE,153,2.0,4.0,17,0.00,,,0.00,meteohub,2013-08-17 22:35:00,
2013-08-17 16:41:00,79.5,30.9,29.74,SSE,153,4.0,5.0,17,0.00,,,0.00,meteohub,2013-08-17 22:41:00,
2013-08-17 16:48:00,80.1,29.8,29.73,SSE,153,5.0,5.0,16,0.00,,,0.00,meteohub,2013-08-17 22:48:00,
2013-08-17 16:54:00,80.1,29.8,29.73,SSE,153,1.0,6.0,16,0.00,,,0.00,meteohub,2013-08-17 22:54:00,
2013-08-17 17:00:00,80.4,30.2,29.73,SSE,153,5.0,7.0,16,0.00,,,0.00,meteohub,2013-08-17 23:00:00,
2013-08-17 17:06:00,80.4,31.6,29.73,SSE,153,5.0,7.0,17,0.00,,,0.00,meteohub,2013-08-17 23:06:00,
2013-08-17 17:12:00,79.9,29.7,29.73,SSE,154,1.0,7.0,16,0.00,,,0.00,meteohub,2013-08-17 23:12:00,
2013-08-17 17:18:00,79.9,31.1,29.73,SSE,154,0.0,7.0,17,0.00,,,0.00,meteohub,2013-08-17 23:18:00,
2013-08-17 17:24:00,80.1,31.3,29.73,SSE,153,3.0,7.0,17,0.00,,,0.00,meteohub,2013-08-17 23:24:00,
2013-08-17 17:30:00,79.3,30.7,29.73,SSE,152,2.0,5.0,17,0.00,,,0.00,meteohub,2013-08-17 23:30:00,
2013-08-17 17:36:00,79.2,30.6,29.73,SSE,152,0.0,7.0,17,0.00,,,0.00,meteohub,2013-08-17 23:36:00,
2013-08-17 17:42:00,79.2,30.6,29.73,SSE,152,3.0,7.0,17,0.00,,,0.00,meteohub,2013-08-17 23:42:00,
2013-08-17 17:48:00,79.0,30.4,29.73,SSE,152,0.0,4.0,17,0.00,,,0.00,meteohub,2013-08-17 23:48:00,
2013-08-17 17:54:00,78.6,30.2,29.73,SSE,152,2.0,4.0,17,0.00,,,0.00,meteohub,2013-08-17 23:54:00,
2013-08-17 18:00:00,78.6,28.8,29.72,SSE,152,0.0,3.0,16,0.00,,,0.00,meteohub,2013-08-18 00:00:00,
2013-08-17 18:06:00,78.6,31.6,29.72,SSE,152,0.0,2.0,18,0.00,,,0.00,meteohub,2013-08-18 00:06:00,
2013-08-17 18:12:00,78.4,30.0,29.72,SSE,152,1.0,1.0,17,0.00,,,0.00,meteohub,2013-08-18 00:12:00,
2013-08-17 18:18:00,78.1,29.7,29.71,SSE,152,0.0,2.0,17,0.00,,,0.00,meteohub,2013-08-18 00:18:00,
2013-08-17 18:24:00,78.1,32.5,29.71,SSE,152,0.0,2.0,19,0.00,,,0.00,meteohub,2013-08-18 00:24:00,
2013-08-17 18:30:00,78.1,29.7,29.71,SSE,152,2.0,2.0,17,0.00,,,0.00,meteohub,2013-08-18 00:30:00,
2013-08-17 18:36:00,78.3,29.8,29.71,SSE,152,2.0,3.0,17,0.00,,,0.00,meteohub,2013-08-18 00:36:00,
2013-08-17 18:42:00,78.3,31.3,29.71,SSE,152,2.0,3.0,18,0.00,,,0.00,meteohub,2013-08-18 00:42:00,
2013-08-17 18:48:00,77.7,30.9,29.71,SSE,152,1.0,3.0,18,0.00,,,0.00,meteohub,2013-08-18 00:48:00,
2013-08-17 18:54:00,77.2,31.8,29.71,SSE,152,0.0,3.0,19,0.00,,,0.00,meteohub,2013-08-18 00:54:00,
2013-08-17 19:00:00,76.3,32.2,29.71,SSE,152,1.0,3.0,20,0.00,,,0.00,meteohub,2013-08-18 01:00:00,
2013-08-17 19:06:00,75.6,31.6,29.71,SSE,152,2.0,4.0,20,0.00,,,0.00,meteohub,2013-08-18 01:06:00,
2013-08-17 19:12:00,74.7,32.2,29.71,SSE,152,3.0,4.0,21,0.00,,,0.00,meteohub,2013-08-18 01:12:00,
2013-08-17 19:18:00,73.9,31.5,29.71,SSE,152,3.0,4.0,21,0.00,,,0.00,meteohub,2013-08-18 01:18:00,
2013-08-17 19:24:00,73.2,30.9,29.71,SSE,152,3.0,4.0,21,0.00,,,0.00,meteohub,2013-08-18 01:24:00,
2013-08-17 19:30:00,72.9,30.6,29.72,SSE,152,3.0,4.0,21,0.00,,,0.00,meteohub,2013-08-18 01:30:00,
2013-08-17 19:36:00,72.5,31.5,29.72,SSE,152,3.0,4.0,22,0.00,,,0.00,meteohub,2013-08-18 01:36:00,
2013-08-17 19:42:00,72.3,31.3,29.72,SSE,152,1.0,4.0,22,0.00,,,0.00,meteohub,2013-08-18 01:42:00,
2013-08-17 19:48:00,72.1,31.1,29.72,SSE,152,0.0,4.0,22,0.00,,,0.00,meteohub,2013-08-18 01:48:00,
2013-08-17 19:54:00,71.8,30.9,29.73,SE,140,5.0,5.0,22,0.00,,,0.00,meteohub,2013-08-18 01:54:00,
2013-08-17 20:00:00,71.2,34.5,29.73,SE,140,0.0,6.0,26,0.00,,,0.00,meteohub,2013-08-18 02:00:00,
2013-08-17 20:06:00,70.2,34.7,29.73,SE,140,3.0,6.0,27,0.00,,,0.00,meteohub,2013-08-18 02:06:00,
2013-08-17 20:12:00,69.8,33.4,29.73,SW,226,6.0,6.0,26,0.00,,,0.00,meteohub,2013-08-18 02:12:00,
2013-08-17 20:18:00,70.2,33.6,29.73,WNW,288,3.0,10.0,26,0.00,,,0.00,meteohub,2013-08-18 02:18:00,
2013-08-17 20:24:00,70.2,33.6,29.73,West,280,0.0,10.0,26,0.00,,,0.00,meteohub,2013-08-18 02:24:00,
2013-08-17 20:30:00,71.4,31.6,29.74,SE,137,5.0,11.0,23,0.00,,,0.00,meteohub,2013-08-18 02:30:00,
2013-08-17 20:37:00,72.1,33.4,29.74,SE,126,0.0,11.0,24,0.00,,,0.00,meteohub,2013-08-18 02:37:00,
2013-08-17 20:42:00,72.1,32.4,29.75,SE,126,0.0,11.0,23,0.00,,,0.00,meteohub,2013-08-18 02:42:00,
2013-08-17 20:49:00,72.0,32.2,29.75,SE,126,0.0,9.0,23,0.00,,,0.00,meteohub,2013-08-18 02:49:00,
2013-08-17 20:55:00,71.6,32.9,29.75,SE,126,1.0,3.0,24,0.00,,,0.00,meteohub,2013-08-18 02:55:00,
2013-08-17 21:01:00,71.4,32.7,29.75,ESE,113,4.0,4.0,24,0.00,,,0.00,meteohub,2013-08-18 03:01:00,
2013-08-17 21:07:00,71.6,31.8,29.75,ESE,113,0.0,7.0,23,0.00,,,0.00,meteohub,2013-08-18 03:07:00,
2013-08-17 21:13:00,71.4,32.7,29.75,ESE,113,1.0,7.0,24,0.00,,,0.00,meteohub,2013-08-18 03:13:00,
2013-08-17 21:19:00,71.2,32.5,29.75,ESE,113,0.0,5.0,24,0.00,,,0.00,meteohub,2013-08-18 03:19:00,
2013-08-17 21:25:00,70.5,33.1,29.75,ESE,113,2.0,2.0,25,0.00,,,0.00,meteohub,2013-08-18 03:25:00,
2013-08-17 21:31:00,69.6,34.2,29.75,ESE,113,0.0,2.0,27,0.00,,,0.00,meteohub,2013-08-18 03:31:00,
2013-08-17 21:37:00,68.9,32.5,29.75,ESE,113,2.0,3.0,26,0.00,,,0.00,meteohub,2013-08-18 03:37:00,
2013-08-17 21:43:00,68.4,32.2,29.76,ESE,113,3.0,4.0,26,0.00,,,0.00,meteohub,2013-08-18 03:43:00,
2013-08-17 21:49:00,68.4,33.1,29.76,ESE,112,5.0,5.0,27,0.00,,,0.00,meteohub,2013-08-18 03:49:00,
2013-08-17 21:55:00,68.4,34.0,29.76,ESE,112,2.0,5.0,28,0.00,,,0.00,meteohub,2013-08-18 03:55:00,
2013-08-17 22:01:00,68.7,33.4,29.76,ESE,110,3.0,5.0,27,0.00,,,0.00,meteohub,2013-08-18 04:01:00,
2013-08-17 22:02:00,68.7,33.4,29.76,ESE,110,2.0,5.0,27,0.00,,,0.00,meteohub,2013-08-18 04:02:00,
2013-08-17 22:04:00,69.1,32.7,29.76,ESE,110,2.0,5.0,26,0.00,,,0.00,meteohub,2013-08-18 04:04:00,
2013-08-17 22:10:00,69.1,33.6,29.77,ESE,107,3.0,9.0,27,0.00,,,0.00,meteohub,2013-08-18 04:10:00,
2013-08-17 22:13:00,68.9,33.6,29.76,ESE,106,2.0,9.0,27,0.00,,,0.00,meteohub,2013-08-18 04:13:00,
2013-08-17 22:16:00,68.7,34.3,29.76,ESE,106,1.0,7.0,28,0.00,,,0.00,meteohub,2013-08-18 04:16:00,
2013-08-17 22:22:00,68.5,35.1,29.76,ESE,106,3.0,7.0,29,0.00,,,0.00,meteohub,2013-08-18 04:22:00,
2013-08-17 22:28:00,67.8,35.2,29.77,ESE,106,0.0,7.0,30,0.00,,,0.00,meteohub,2013-08-18 04:28:00,
2013-08-17 22:34:00,67.5,35.8,29.76,ESE,106,0.0,3.0,31,0.00,,,0.00,meteohub,2013-08-18 04:34:00,
2013-08-17 22:40:00,67.1,37.0,29.76,ESE,106,0.0,2.0,33,0.00,,,0.00,meteohub,2013-08-18 04:40:00,
2013-08-17 22:46:00,66.7,37.4,29.76,ESE,106,1.0,2.0,34,0.00,,,0.00,meteohub,2013-08-18 04:46:00,
2013-08-17 22:52:00,66.6,38.1,29.76,ESE,106,2.0,3.0,35,0.00,,,0.00,meteohub,2013-08-18 04:52:00,
2013-08-17 22:58:00,66.0,38.3,29.76,ESE,104,3.0,5.0,36,0.00,,,0.00,meteohub,2013-08-18 04:58:00,
2013-08-17 23:04:00,65.5,38.5,29.76,East,94,5.0,5.0,37,0.00,,,0.00,meteohub,2013-08-18 05:04:00,
2013-08-17 23:10:00,64.8,39.9,29.76,East,85,3.0,7.0,40,0.00,,,0.00,meteohub,2013-08-18 05:10:00,
2013-08-17 23:16:00,64.6,39.7,29.75,East,81,5.0,7.0,40,0.00,,,0.00,meteohub,2013-08-18 05:16:00,
2013-08-17 23:22:00,64.4,39.6,29.75,ENE,76,3.0,7.0,40,0.00,,,0.00,meteohub,2013-08-18 05:22:00,
2013-08-17 23:28:00,64.0,39.2,29.76,ENE,74,4.0,7.0,40,0.00,,,0.00,meteohub,2013-08-18 05:28:00,
2013-08-17 23:34:00,64.0,39.2,29.75,ENE,66,7.0,7.0,40,0.00,,,0.00,meteohub,2013-08-18 05:34:00,
2013-08-17 23:40:00,64.0,39.2,29.76,ENE,65,1.0,7.0,40,0.00,,,0.00,meteohub,2013-08-18 05:40:00,
2013-08-17 23:46:00,63.9,39.0,29.76,NE,48,6.0,7.0,40,0.00,,,0.00,meteohub,2013-08-18 05:46:00,
2013-08-17 23:52:00,63.9,39.7,29.76,NNE,19,4.0,7.0,41,0.00,,,0.00,meteohub,2013-08-18 05:52:00,
2013-08-17 23:58:00,63.7,39.6,29.76,North,10,4.0,8.0,41,0.00,,,0.00,meteohub,2013-08-18 05:58:00,